DB0SMU-12 Weather Reports


Display with metric or nautical units.
time (UTC)temp
F
wind
direction
speed
MPH
gust
MPH
rain 1hr
in
rain 24hr
in
rain mn
in
humidity
%
barometer
mb
20260506102234 63 302 2.0 9.0 0.00 0.02 0.00 52 1007.6
20260506101933 62 334 5.0 9.0 0.00 0.02 0.00 52 1007.6
20260506101633 63 20 4.0 9.0 0.00 0.02 0.00 52 1007.7
20260506101332 62 356 3.0 6.0 0.00 0.02 0.00 54 1007.7
20260506101031 62 323 3.0 8.0 0.00 0.02 0.00 51 1007.8
20260506100128 62 67 5.0 8.0 0.00 0.02 0.00 52 1007.8
20260506095828 62 34 3.0 7.0 0.00 0.02 0.00 54 1007.9
20260506095527 62 75 4.0 9.0 0.00 0.02 0.00 52 1007.9
20260506095226 62 77 2.0 9.0 0.00 0.02 0.00 53 1007.8
20260506094925 61 53 4.0 9.0 0.00 0.02 0.00 52 1007.8
20260506094624 62 83 1.0 6.0 0.00 0.02 0.00 56 1008.0
20260506094323 62 328 3.0 9.0 0.00 0.02 0.00 53 1007.8
20260506094022 63 46 4.0 9.0 0.00 0.02 0.00 51 1007.9
20260506093721 63 85 5.0 9.0 0.00 0.02 0.00 53 1007.7
20260506093421 62 84 2.0 6.0 0.00 0.02 0.00 53 1007.8
20260506093119 61 99 4.0 6.0 0.00 0.02 0.00 54 1007.8
20260506092819 61 349 2.0 6.0 0.00 0.02 0.00 54 1007.8
20260506092517 61 17 3.0 6.0 0.00 0.02 0.00 53 1007.8
20260506092216 61 14 3.0 6.0 0.00 0.02 0.00 54 1008.0
20260506091915 61 311 1.0 4.0 0.00 0.02 0.00 56 1008.0
20260506091614 61 308 1.0 5.0 0.00 0.02 0.00 56 1008.0
20260506091314 61 98 2.0 5.0 0.00 0.02 0.00 56 1008.0
20260506091013 60 100 3.0 5.0 0.00 0.02 0.00 57 1007.9
20260506090712 59 74 3.0 7.0 0.00 0.02 0.00 58 1008.0
20260506090411 59 336 1.0 7.0 0.00 0.02 0.00 57 1007.9
20260506090110 59 41 4.0 7.0 0.00 0.02 0.00 58 1007.7
20260506085809 59 37 3.0 6.0 0.00 0.02 0.00 58 1007.7
20260506085508 59 23 3.0 5.0 0.00 0.02 0.00 57 1007.8
20260506085208 59 356 2.0 5.0 0.00 0.02 0.00 59 1007.9
20260506084906 59 25 3.0 5.0 0.00 0.02 0.00 58 1008.1
20260506084606 59 265 2.0 5.0 0.00 0.02 0.00 58 1008.0
20260506084305 59 314 3.0 5.0 0.00 0.02 0.00 59 1008.0
20260506084004 59 293 2.0 6.0 0.00 0.02 0.00 59 1008.0
20260506083703 59 287 1.0 6.0 0.00 0.02 0.00 58 1008.0
20260506083402 59 311 3.0 6.0 0.00 0.02 0.00 59 1008.1
20260506083101 59 260 2.0 6.0 0.00 0.02 0.00 59 1008.1
20260506082800 60 253 2.0 5.0 0.00 0.02 0.00 57 1008.2
20260506082500 60 263 4.0 5.0 0.00 0.02 0.00 57 1008.2
20260506082159 59 18 1.0 4.0 0.00 0.02 0.00 58 1008.0
20260506081858 59 330 1.0 4.0 0.00 0.02 0.00 58 1008.0
20260506081256 59 299 2.0 5.0 0.00 0.02 0.00 58 1007.9
20260506080955 58 304 2.0 5.0 0.00 0.02 0.00 59 1008.0
20260506080353 58 239 2.0 4.0 0.00 0.02 0.00 61 1008.0
20260506073344 58 25 1.0 3.0 0.00 0.02 0.00 61 1008.1
20260506073043 57 331 1.0 4.0 0.00 0.02 0.00 61 1008.1
20260506072742 57 316 1.0 4.0 0.00 0.02 0.00 62 1008.2
20260506072441 57 293 1.0 5.0 0.00 0.02 0.00 63 1008.1
20260506072141 58 272 2.0 5.0 0.00 0.02 0.00 63 1008.3
20260506071840 57 242 3.0 5.0 0.00 0.02 0.00 62 1008.3
20260506071539 58 233 4.0 6.0 0.00 0.02 0.00 64 1008.2
20260506071238 57 231 3.0 6.0 0.00 0.02 0.00 64 1008.4
20260506070937 57 222 3.0 6.0 0.00 0.02 0.00 65 1008.4
20260506070636 57 229 4.0 5.0 0.00 0.02 0.00 65 1008.4
20260506070335 57 226 3.0 4.0 0.00 0.02 0.00 66 1008.4
20260506062424 56 213 3.0 5.0 0.00 0.02 0.00 68 1008.4
20260506062123 56 221 2.0 5.0 0.00 0.02 0.00 67 1008.4
20260506061822 56 230 2.0 5.0 0.00 0.02 0.00 68 1008.3
20260506061521 56 231 3.0 6.0 0.00 0.02 0.00 69 1008.4
20260506061221 56 196 3.0 6.0 0.00 0.02 0.00 69 1008.4
20260506060920 55 211 3.0 6.0 0.00 0.02 0.00 70 1008.3
20260506060619 55 217 4.0 6.0 0.00 0.02 0.00 71 1008.4
20260506060318 55 204 3.0 6.0 0.00 0.02 0.00 71 1008.3
20260506051202 50 144 2.0 3.0 0.00 0.02 0.00 76 1008.5
20260506050901 50 136 1.0 4.0 0.00 0.02 0.00 76 1008.6
20260506050600 50 137 2.0 4.0 0.00 0.02 0.00 76 1008.7
20260506050259 50 161 1.0 4.0 0.00 0.02 0.00 76 1008.7
20260506045056 50 158 2.0 3.0 0.01 0.02 0.00 77 1008.7
20260506044755 50 172 1.0 2.0 0.01 0.02 0.00 77 1008.7
20260506044454 50 154 0.0 2.0 0.01 0.02 0.00 77 1008.7
20260506044154 50 136 1.0 2.0 0.01 0.02 0.00 76 1008.8
20260506043853 50 94 1.0 2.0 0.01 0.02 0.00 77 1008.7
20260506043552 49 115 2.0 2.0 0.01 0.02 0.00 77 1008.8
20260506043251 49 143 1.0 2.0 0.01 0.02 0.00 77 1008.8
20260506042950 49 239 0.0 2.0 0.01 0.02 0.00 77 1008.8
20260506042649 49 238 0.0 2.0 0.01 0.02 0.00 77 1008.8
20260506042348 49 174 1.0 2.0 0.01 0.02 0.00 77 1008.8
20260506042047 50 179 0.0 1.0 0.01 0.02 0.00 77 1008.8
20260506041746 50 259 0.0 1.0 0.01 0.02 0.00 76 1008.8
20260506041445 50 225 1.0 1.0 0.01 0.02 0.00 76 1008.9
20260506041145 50 249 0.0 1.0 0.01 0.02 0.00 77 1008.9
20260506040844 50 282 0.0 2.0 0.01 0.02 0.00 77 1008.8
20260506040543 49 9 0.0 2.0 0.01 0.02 0.00 78 1008.8
20260506040242 49 43 1.0 2.0 0.00 0.01 0.00 78 1008.8
20260506035941 49 44 1.0 2.0 0.00 0.01 0.00 77 1008.8
20260506035640 49 75 1.0 2.0 0.00 0.01 0.00 78 1008.8
20260506035339 49 46 1.0 2.0 0.00 0.01 0.00 77 1008.8
20260506035038 49 38 1.0 1.0 0.00 0.01 0.00 77 1009.0
20260506034737 50 31 1.0 1.0 0.00 0.01 0.00 77 1008.9
20260506034437 50 17 1.0 2.0 0.00 0.01 0.00 77 1009.0
20260506034136 50 131 1.0 4.0 0.00 0.01 0.00 76 1009.1
20260506033835 50 151 1.0 4.0 0.00 0.01 0.00 76 1009.3
20260506033534 50 193 2.0 5.0 0.00 0.01 0.00 76 1009.3
20260506033233 50 191 2.0 5.0 0.00 0.01 0.00 76 1009.3
20260506032932 50 202 3.0 5.0 0.00 0.01 0.00 76 1009.3
20260506032631 50 225 3.0 5.0 0.00 0.01 0.00 76 1009.2
20260506031729 50 225 5.0 8.0 0.00 0.01 0.00 76 1009.4
20260506031428 50 224 6.0 8.0 0.00 0.01 0.00 76 1009.3
20260506031127 50 223 7.0 8.0 0.00 0.01 0.00 76 1009.4
20260506030826 50 224 7.0 8.0 0.00 0.01 0.00 76 1009.4
20260506030525 50 222 6.0 8.0 0.00 0.01 0.00 76 1009.4
20260506030224 50 225 5.0 9.0 0.00 0.01 0.00 76 1009.4
20260506025923 50 225 6.0 10.0 0.00 0.01 0.00 76 1009.4
20260506025623 50 222 8.0 10.0 0.00 0.01 0.00 75 1009.5
20260506025322 50 212 8.0 10.0 0.00 0.01 0.00 75 1009.5
20260506025021 50 220 6.0 10.0 0.00 0.01 0.00 76 1009.5
20260506024720 50 224 8.0 10.0 0.00 0.01 0.00 76 1009.5
20260506024419 50 225 8.0 9.0 0.00 0.01 0.00 76 1009.5
20260506024118 50 225 6.0 9.0 0.00 0.01 0.00 76 1009.5
20260506023818 50 224 6.0 9.0 0.00 0.01 0.00 76 1009.5
20260506023517 50 224 7.0 9.0 0.00 0.01 0.00 76 1009.5
20260506023216 50 225 7.0 8.0 0.00 0.01 0.00 76 1009.6
20260506022614 50 224 7.0 10.0 0.00 0.01 0.00 76 1009.7
20260506022313 50 224 7.0 10.0 0.00 0.01 0.00 75 1009.8
20260506022012 50 221 7.0 10.0 0.00 0.01 0.00 75 1009.7
20260506021711 50 209 8.0 10.0 0.00 0.01 0.00 75 1009.6
20260506021410 50 211 8.0 10.0 0.00 0.01 0.00 75 1009.5
20260506021110 50 222 5.0 7.0 0.00 0.01 0.00 76 1009.5
20260506020809 49 225 5.0 7.0 0.00 0.01 0.00 76 1009.5
20260506020508 50 225 6.0 8.0 0.00 0.01 0.00 76 1009.5
20260506020207 50 225 6.0 8.0 0.00 0.01 0.00 76 1009.5
20260506015906 50 225 6.0 8.0 0.00 0.01 0.00 76 1009.6
20260506015605 49 223 6.0 8.0 0.00 0.01 0.00 76 1009.6
20260506015306 50 225 7.0 8.0 0.00 0.01 0.00 75 1009.7
20260506015003 50 225 7.0 8.0 0.00 0.01 0.00 75 1009.8
20260506014702 50 223 7.0 8.0 0.00 0.01 0.00 75 1009.7
20260506014401 50 224 6.0 8.0 0.00 0.01 0.00 75 1009.6
20260506014100 50 224 6.0 9.0 0.00 0.01 0.00 75 1009.6
20260506013800 50 224 7.0 9.0 0.00 0.01 0.00 75 1009.6
20260506013459 50 224 7.0 9.0 0.00 0.01 0.00 75 1009.6
20260506013158 50 223 6.0 7.0 0.00 0.01 0.00 75 1009.6
20260506012857 50 225 6.0 7.0 0.00 0.01 0.00 75 1009.7
20260506012556 50 225 6.0 7.0 0.00 0.01 0.00 75 1009.7
20260506012255 50 225 7.0 9.0 0.00 0.01 0.00 75 1009.7
20260506011954 50 225 6.0 9.0 0.00 0.01 0.00 75 1009.8
20260506011653 50 225 6.0 9.0 0.00 0.01 0.00 75 1009.8
20260506011352 50 217 6.0 8.0 0.00 0.01 0.00 74 1009.9
20260506011052 50 214 7.0 8.0 0.00 0.01 0.00 74 1010.0
20260506010751 50 215 6.0 7.0 0.00 0.01 0.00 75 1010.0
20260506010450 50 210 5.0 7.0 0.00 0.01 0.00 74 1009.9
20260506010149 50 216 3.0 6.0 0.00 0.01 0.00 74 1009.9
20260506005848 50 206 3.0 6.0 0.00 0.01 0.00 74 1010.0
20260506005547 50 173 2.0 5.0 0.00 0.01 0.00 75 1009.9
20260506005246 50 172 3.0 5.0 0.00 0.01 0.00 76 1009.9
20260506004946 50 118 1.0 2.0 0.00 0.01 0.00 76 1009.9
20260506004645 50 90 0.0 1.0 0.00 0.01 0.00 77 1009.9
20260506004344 50 82 1.0 3.0 0.00 0.01 0.00 77 1009.9
20260506004043 50 182 0.0 3.0 0.00 0.01 0.00 77 1009.9
20260506003742 50 51 1.0 3.0 0.00 0.01 0.00 78 1009.9
20260506003441 50 81 2.0 2.0 0.00 0.01 0.00 77 1010.0
20260506003140 51 90 2.0 5.0 0.00 0.01 0.00 76 1009.9
20260506002839 51 95 1.0 5.0 0.00 0.01 0.00 75 1009.9
20260506002539 51 152 1.0 5.0 0.00 0.01 0.00 75 1010.1
20260506002238 51 187 3.0 5.0 0.00 0.01 0.00 74 1010.0
20260506001937 51 211 3.0 6.0 0.00 0.01 0.00 75 1009.9
20260506001636 51 221 4.0 7.0 0.00 0.01 0.00 75 1009.9
20260506001335 51 223 5.0 7.0 0.00 0.01 0.00 75 1010.0
20260506001034 52 224 6.0 7.0 0.00 0.01 0.00 75 1010.0
20260506000733 52 225 6.0 7.0 0.00 0.01 0.00 75 1010.1
20260506000432 52 224 6.0 7.0 0.00 0.01 0.00 75 1010.2
20260506000131 52 223 6.0 7.0 0.00 0.01 0.00 75 1010.2
20260505235830 52 223 6.0 7.0 0.00 0.01 0.00 75 1010.2
20260505235530 52 216 7.0 7.0 0.00 0.01 0.00 75 1010.2
20260505235229 52 224 5.0 6.0 0.00 0.01 0.00 75 1010.2
20260505234928 52 225 5.0 7.0 0.00 0.01 0.00 75 1010.2
20260505234627 52 225 5.0 7.0 0.00 0.01 0.00 75 1010.3
20260505234326 52 223 6.0 7.0 0.00 0.01 0.00 76 1010.2
20260505234025 52 225 5.0 7.0 0.00 0.01 0.00 76 1010.2
20260505233724 52 225 5.0 7.0 0.00 0.01 0.00 75 1010.4
20260505233424 53 223 5.0 7.0 0.00 0.01 0.00 75 1010.4
20260505233123 53 225 5.0 8.0 0.00 0.01 0.00 75 1010.3
20260505232822 53 223 6.0 10.0 0.00 0.01 0.00 74 1010.4
20260505232521 53 218 5.0 10.0 0.00 0.01 0.00 74 1010.4
20260505232220 53 219 8.0 10.0 0.00 0.01 0.00 74 1010.4
20260505231919 53 218 7.0 9.0 0.00 0.01 0.00 74 1010.4
20260505231618 53 225 8.0 9.0 0.00 0.01 0.00 75 1010.4
20260505231317 53 225 8.0 9.0 0.00 0.01 0.00 74 1010.4
20260505231016 53 225 8.0 9.0 0.00 0.01 0.00 75 1010.3
20260505230716 53 225 7.0 9.0 0.00 0.01 0.00 75 1010.4
20260505230415 53 225 8.0 9.0 0.00 0.01 0.00 75 1010.2
20260505230114 53 225 7.0 10.0 0.00 0.01 0.00 74 1010.3
20260505225813 53 225 6.0 10.0 0.00 0.01 0.00 75 1010.3
20260505225512 53 226 6.0 10.0 0.00 0.01 0.00 75 1010.5
20260505225211 53 225 6.0 8.0 0.00 0.01 0.00 75 1010.5
20260505224910 53 230 6.0 8.0 0.00 0.01 0.00 75 1010.6
20260505224609 53 225 7.0 8.0 0.00 0.01 0.00 75 1010.6
20260505224308 53 225 7.0 8.0 0.00 0.01 0.00 75 1010.6
20260505224008 54 225 7.0 8.0 0.00 0.01 0.00 75 1010.6
20260505223707 54 225 5.0 8.0 0.00 0.01 0.00 75 1010.6
20260505223406 54 210 5.0 9.0 0.00 0.01 0.00 74 1010.6
20260505223105 54 208 6.0 9.0 0.00 0.01 0.00 74 1010.6
20260505222804 54 212 6.0 10.0 0.00 0.01 0.00 74 1010.6
20260505222503 54 210 7.0 10.0 0.00 0.01 0.00 74 1010.5
20260505222202 54 219 7.0 10.0 0.00 0.01 0.00 74 1010.5
20260505221901 54 219 5.0 8.0 0.00 0.01 0.00 74 1010.4
20260505221302 54 221 4.0 11.0 0.00 0.01 0.00 74 1010.5
20260505220958 54 207 8.0 11.0 0.00 0.01 0.00 74 1010.5
20260505220657 54 212 6.0 10.0 0.00 0.01 0.00 75 1010.5
20260505220357 54 215 6.0 10.0 0.00 0.01 0.00 76 1010.6
20260505220056 54 222 8.0 10.0 0.00 0.01 0.00 76 1010.5
20260505215755 54 220 8.0 11.0 0.00 0.01 0.00 76 1010.4
20260505215454 54 219 8.0 11.0 0.00 0.01 0.00 77 1010.5
20260505215153 54 225 9.0 11.0 0.00 0.01 0.00 77 1010.4
20260505214852 54 224 9.0 10.0 0.00 0.01 0.00 77 1010.4
20260505214552 54 225 8.0 12.0 0.00 0.01 0.00 77 1010.4
20260505214251 54 225 9.0 14.0 0.00 0.01 0.00 77 1010.5
20260505213950 54 225 10.0 14.0 0.00 0.01 0.00 77 1010.6
20260505213649 54 225 10.0 14.0 0.00 0.01 0.00 76 1010.6
20260505213348 54 221 11.0 13.0 0.00 0.01 0.00 77 1010.6
20260505213047 54 218 9.0 11.0 0.00 0.01 0.00 76 1010.5
20260505212746 54 225 8.0 11.0 0.00 0.01 0.00 76 1010.6
20260505212445 54 220 8.0 11.0 0.00 0.01 0.00 76 1010.4
20260505212145 55 225 7.0 8.0 0.00 0.01 0.00 75 1010.4
20260505211844 55 223 5.0 8.0 0.00 0.01 0.00 75 1010.3
20260505211543 55 235 5.0 8.0 0.00 0.01 0.00 75 1010.2
20260505211242 55 230 6.0 12.0 0.00 0.01 0.00 75 1010.4
20260505210941 55 223 6.0 14.0 0.00 0.01 0.00 75 1010.3
20260505210640 55 225 9.0 17.0 0.00 0.01 0.00 75 1010.3
20260505210339 55 228 10.0 17.0 0.00 0.01 0.00 74 1010.4
20260505210038 55 224 12.0 17.0 0.00 0.01 0.00 74 1010.4
20260505205737 56 241 7.0 15.0 0.00 0.01 0.00 72 1010.3
20260505205437 56 235 9.0 15.0 0.00 0.01 0.00 73 1010.4
20260505205136 56 227 10.0 15.0 0.00 0.01 0.00 72 1010.6
20260505204835 56 234 10.0 15.0 0.00 0.01 0.00 70 1010.5
20260505204533 56 237 11.0 17.0 0.00 0.01 0.00 70 1010.6
20260505204232 56 236 11.0 17.0 0.00 0.01 0.00 70 1010.6
20260505203931 56 247 10.0 18.0 0.00 0.01 0.00 70 1010.6
20260505203630 57 249 11.0 21.0 0.00 0.01 0.00 70 1010.5
20260505203329 57 255 12.0 21.0 0.00 0.01 0.00 70 1010.5
20260505203028 57 243 15.0 21.0 0.00 0.01 0.00 70 1010.5
20260505202728 57 245 12.0 27.0 0.00 0.01 0.00 71 1010.6
20260505202126 57 238 17.0 27.0 0.00 0.01 0.00 71 1010.5
20260505201825 58 234 17.0 27.0 0.00 0.01 0.00 72 1010.7
20260505201524 58 239 14.0 22.0 0.00 0.01 0.00 73 1010.5
20260505201223 58 233 14.0 22.0 0.00 0.01 0.00 73 1010.5
20260505200922 58 234 16.0 22.0 0.00 0.01 0.00 74 1010.4
20260505200621 58 230 14.0 19.0 0.00 0.01 0.00 73 1010.4
20260505200320 58 234 13.0 19.0 0.00 0.01 0.00 73 1010.4
20260505200019 58 244 12.0 19.0 0.00 0.01 0.00 73 1010.3
20260505195718 57 234 12.0 16.0 0.00 0.01 0.00 73 1010.3
20260505195418 57 234 11.0 15.0 0.00 0.01 0.00 73 1010.2
20260505195117 57 228 11.0 16.0 0.00 0.01 0.00 73 1010.1
20260505194816 57 227 10.0 16.0 0.00 0.01 0.00 74 1010.1
20260505194515 57 230 12.0 16.0 0.00 0.01 0.00 74 1010.1
20260505194214 57 225 8.0 11.0 0.00 0.01 0.00 75 1009.9
20260505193913 57 225 9.0 11.0 0.00 0.01 0.00 75 1009.9
20260505193612 57 226 8.0 10.0 0.00 0.01 0.00 74 1009.8
20260505193311 57 225 7.0 9.0 0.00 0.01 0.00 74 1009.7
20260505193010 57 233 6.0 8.0 0.00 0.01 0.00 74 1009.6
20260505192709 58 229 6.0 8.0 0.00 0.01 0.00 73 1009.5
20260505192409 57 229 6.0 8.0 0.00 0.01 0.00 74 1009.5
20260505192108 57 227 6.0 7.0 0.00 0.01 0.00 73 1009.4
20260505191807 58 228 5.0 7.0 0.00 0.01 0.00 73 1009.4
20260505191506 58 249 5.0 7.0 0.00 0.01 0.00 73 1009.3
20260505191205 58 242 5.0 7.0 0.00 0.01 0.00 73 1009.4
20260505190904 58 252 4.0 7.0 0.00 0.01 0.00 74 1009.3
20260505190603 58 254 4.0 7.0 0.00 0.01 0.00 74 1009.3
20260505190302 57 247 5.0 7.0 0.00 0.01 0.00 74 1009.3
20260505190001 57 261 4.0 7.0 0.00 0.01 0.00 74 1009.3
20260505185701 58 259 5.0 7.0 0.00 0.01 0.00 74 1009.3
20260505185400 58 267 4.0 7.0 0.00 0.01 0.00 73 1009.2
20260505185059 58 264 5.0 7.0 0.00 0.01 0.00 73 1009.1
20260505184758 58 259 5.0 7.0 0.00 0.01 0.00 73 1009.2
20260505184457 58 270 5.0 7.0 0.00 0.01 0.00 72 1009.1
20260505184156 58 260 5.0 7.0 0.00 0.01 0.00 71 1009.1
20260505183856 58 265 5.0 8.0 0.00 0.01 0.00 71 1009.0
20260505183555 58 262 5.0 9.0 0.00 0.01 0.00 70 1008.9
20260505183254 58 262 5.0 9.0 0.00 0.01 0.00 70 1009.0
20260505182953 58 249 6.0 9.0 0.00 0.01 0.00 70 1008.9
20260505182652 58 260 5.0 8.0 0.00 0.01 0.00 70 1008.8
20260505182351 59 254 5.0 7.0 0.00 0.01 0.00 70 1008.7
20260505182050 59 243 3.0 6.0 0.00 0.01 0.00 69 1008.7
20260505181749 59 256 3.0 5.0 0.00 0.01 0.00 68 1008.6
20260505181449 59 263 3.0 6.0 0.00 0.01 0.00 68 1008.5
20260505181147 59 251 3.0 7.0 0.00 0.01 0.00 68 1008.4
20260505180846 59 270 4.0 7.0 0.00 0.01 0.00 69 1008.4
20260505180546 59 270 5.0 7.0 0.00 0.01 0.00 68 1008.4
20260505180245 60 260 3.0 5.0 0.00 0.01 0.00 66 1008.2
20260505175944 60 345 1.0 2.0 0.00 0.01 0.00 64 1008.1
20260505175643 60 338 0.0 2.0 0.00 0.01 0.00 63 1008.0
20260505175342 60 257 0.0 2.0 0.01 0.01 0.00 65 1008.0
20260505175041 60 224 1.0 3.0 0.01 0.01 0.00 64 1008.0
20260505174740 60 170 0.0 4.0 0.01 0.01 0.00 64 1008.0
20260505174440 60 51 2.0 6.0 0.01 0.01 0.00 63 1007.9
20260505174139 60 70 3.0 6.0 0.01 0.01 0.00 63 1007.9
20260505173838 60 25 3.0 6.0 0.01 0.01 0.00 62 1007.9
20260505173537 60 25 3.0 6.0 0.01 0.01 0.00 62 1008.1
20260505173236 60 21 2.0 6.0 0.01 0.01 0.00 64 1008.1
20260505172935 60 42 2.0 6.0 0.01 0.01 0.00 65 1008.0
20260505172634 60 43 3.0 6.0 0.01 0.01 0.00 66 1007.9
20260505172333 60 35 3.0 7.0 0.01 0.01 0.00 65 1008.0
20260505172032 60 347 3.0 7.0 0.01 0.01 0.00 66 1008.0
20260505171731 60 322 5.0 7.0 0.01 0.01 0.00 64 1008.1
20260505171430 60 11 2.0 7.0 0.01 0.01 0.00 62 1008.1
20260505171129 60 321 4.0 7.0 0.01 0.01 0.00 61 1008.2
20260505170828 60 306 4.0 7.0 0.01 0.01 0.00 61 1008.3
20260505170528 61 307 3.0 7.0 0.01 0.01 0.00 61 1008.4
20260505170227 61 304 3.0 7.0 0.00 0.00 0.00 61 1008.4
20260505165926 61 312 4.0 7.0 0.00 0.00 0.00 60 1008.3
20260505165625 61 308 3.0 9.0 0.00 0.00 0.00 61 1008.3
20260505165324 61 293 4.0 9.0 0.00 0.00 0.00 60 1008.5
20260505165023 61 302 4.0 12.0 0.00 0.00 0.00 60 1008.4
20260505164722 61 302 5.0 14.0 0.00 0.00 0.00 60 1008.5
20260505164421 61 301 6.0 14.0 0.00 0.00 0.00 59 1008.6
20260505164120 61 303 7.0 14.0 0.00 0.00 0.00 59 1008.5
20260505163819 61 285 7.0 13.0 0.00 0.00 0.00 57 1008.5
20260505163519 61 281 6.0 13.0 0.00 0.00 0.00 57 1008.5
20260505163217 61 280 6.0 13.0 0.00 0.00 0.00 58 1008.5
20260505162917 61 257 8.0 13.0 0.00 0.00 0.00 59 1008.5
20260505162616 61 256 7.0 12.0 0.00 0.00 0.00 60 1008.7
20260505162315 61 275 6.0 12.0 0.00 0.00 0.00 60 1008.6
20260505162014 62 296 6.0 12.0 0.00 0.00 0.00 58 1008.6
20260505161713 62 302 5.0 10.0 0.00 0.00 0.00 58 1008.5
20260505161412 62 311 4.0 10.0 0.00 0.00 0.00 57 1008.4
20260505161111 62 300 5.0 10.0 0.00 0.00 0.00 57 1008.5
20260505160811 62 308 4.0 11.0 0.00 0.00 0.00 56 1008.4
20260505160510 62 315 6.0 11.0 0.00 0.00 0.00 56 1008.3
20260505160209 62 307 5.0 11.0 0.00 0.00 0.00 55 1008.3
20260505153159 63 311 8.0 15.0 0.00 0.00 0.00 54 1008.2
20260505152858 64 304 7.0 14.0 0.00 0.00 0.00 53 1008.3
20260505152557 64 307 7.0 14.0 0.00 0.00 0.00 53 1008.2
20260505152257 64 307 8.0 14.0 0.00 0.00 0.00 51 1008.3
20260505151956 65 286 5.0 13.0 0.00 0.00 0.00 52 1008.4
20260505151655 64 275 6.0 13.0 0.00 0.00 0.00 53 1008.3
20260505151354 64 254 7.0 13.0 0.00 0.00 0.00 54 1008.3
20260505151053 64 254 7.0 12.0 0.00 0.00 0.00 53 1008.3
20260505150752 64 288 5.0 11.0 0.00 0.00 0.00 54 1008.4
20260505150451 64 250 6.0 11.0 0.00 0.00 0.00 55 1008.3
20260505150150 63 268 6.0 11.0 0.00 0.00 0.00 55 1008.3
20260505140433 63 306 6.0 13.0 0.00 0.00 0.00 63 1008.5
20260505140132 63 304 6.0 12.0 0.00 0.00 0.00 62 1008.6
20260505130114 67 258 9.0 15.0 0.00 0.00 0.00 50 1008.5
20260505124911 66 250 10.0 18.0 0.00 0.00 0.00 49 1008.2
20260505124610 66 296 5.0 18.0 0.00 0.00 0.00 50 1008.2
20260505124005 66 258 8.0 16.0 0.00 0.00 0.00 51 1008.3
20260505123704 67 266 9.0 15.0 0.00 0.00 0.00 49 1008.2
20260505123403 67 253 10.0 15.0 0.00 0.00 0.00 50 1008.2
20260505123102 67 267 8.0 17.0 0.00 0.00 0.00 50 1008.3
20260505122801 67 275 7.0 17.0 0.00 0.00 0.00 50 1008.3
20260505122500 67 249 9.0 17.0 0.00 0.00 0.00 50 1008.2
20260505122159 67 249 8.0 17.0 0.00 0.00 0.00 50 1008.5
20260505121858 68 264 11.0 17.0 0.00 0.00 0.00 49 1008.4
20260505121558 68 258 11.0 17.0 0.00 0.00 0.00 49 1008.5
20260505121257 69 265 10.0 19.0 0.00 0.00 0.00 48 1008.4
20260505120956 69 257 9.0 19.0 0.00 0.00 0.00 48 1008.4
20260505120655 70 269 9.0 19.0 0.00 0.00 0.00 45 1008.4
20260505120354 71 294 4.0 10.0 0.00 0.00 0.00 43 1008.5
20260505120054 72 255 3.0 10.0 0.00 0.00 0.00 41 1008.4
20260505115753 72 220 3.0 10.0 0.00 0.00 0.00 42 1008.3
20260505115451 72 225 0.0 6.0 0.00 0.00 0.00 44 1008.5
20260505115403 72 225 3.0 10.0 0.00 0.21 0.00 44 1008.5
20260505115102 72 220 6.0 10.0 0.00 0.21 0.00 44 1008.5
20260505114801 71 244 6.0 9.0 0.00 0.21 0.00 46 1008.5
20260505114500 71 298 3.0 8.0 0.00 0.21 0.00 43 1008.4
20260505114159 71 267 2.0 8.0 0.00 0.21 0.00 43 1008.4
20260505113858 71 297 4.0 8.0 0.00 0.21 0.00 41 1008.4
20260505113558 71 81 3.0 7.0 0.00 0.21 0.00 40 1008.4
20260505113257 71 337 3.0 8.0 0.00 0.21 0.00 41 1008.5
20260505112956 71 315 3.0 8.0 0.00 0.21 0.00 43 1008.5
20260505112655 71 319 4.0 9.0 0.00 0.21 0.00 41 1008.4
20260505112354 71 294 2.0 9.0 0.00 0.21 0.00 41 1008.5
20260505112053 71 300 4.0 9.0 0.00 0.21 0.00 43 1008.5
20260505111752 71 253 3.0 8.0 0.00 0.21 0.00 42 1008.5
20260505111451 71 242 5.0 8.0 0.00 0.21 0.00 41 1008.5
20260505111151 71 270 4.0 7.0 0.00 0.21 0.00 40 1008.5
20260505110850 71 305 3.0 7.0 0.00 0.21 0.00 41 1008.6
20260505110549 71 240 3.0 7.0 0.00 0.21 0.00 42 1008.5
20260505110247 71 271 2.0 7.0 0.00 0.21 0.00 41 1008.5